Location: Brachbach
(49.1847°N, 9.7240°E)
Time: 06:15:46
(UTC+00:00)

PCSat - Pass Details

Date: 14 March 2026
Orbit: 780 x 790 km, 67.1° (Epoch: 13 April)

Event Time Altitude Azimuth Distance (km) Brightness Sun altitude
Exits shadow 02:43:36 - 324° (NW) 2,741 12.3 -27.9°
Reaches altitude 10° 02:45:47 10° 344° (NNW) 2,364 12.2 -27.6°
Maximum altitude 02:47:36 12° 3° (N) 2,255 12.3 -27.4°
Drops below altitude 10° 02:49:25 10° 23° (NNE) 2,365 12.7 -27.1°
Sets 02:53:46 0° 56° (NE) 3,293 14.1 -26.5°
